Regional Weather Roundup
Issued by NWS

Home | Current Version | Previous Version | Text Only | Print | Product List | Glossary Off
Versions: 1 2 3 4 5 6 7 8 9 10 11 12 13 14 15 16 17 18 19 20 21 22 23 24 25 26 27

000
ASUS43 KDMX 180107
RWRIA

WEATHER ROUNDUP FOR IOWA
NATIONAL WEATHER SERVICE DES MOINES IA
800 PM CDT THU APR 17 2014

NOTE: "FAIR" INDICATES FEW OR NO CLOUDS BELOW 12,000 FEET WITH NO
SIGNIFICANT WEATHER AND/OR OBSTRUCTIONS TO VISIBILITY.

* - THESE STATIONS ARE NOT NWS STATIONS...THUS NOT UNDER NWS
QUALITY CONTROL.  THEY ALSO DO NOT REPORT WEATHER SUCH
AS PRECIPITATION OR FOG.

IAZ001>003-012>014-020>022-031>034-043>046-180200-
   NORTHWEST IOWA

CITY           SKY/WX    TMP DP  RH WIND       PRES   REMARKS
CARROLL *      PTCLDY    48  25  40 N5        30.25R
CHEROKEE *     PTCLDY    45  27  49 E3        30.26S
DENISON *      CLEAR     50  23  34 CALM      30.24R
LE MARS *      CLOUDY    48  25  40 NE6       30.25F
ORANGE CITY *  MOCLDY    46  25  42 CALM      30.25S
SHELDON *      PTCLDY    43  28  56 NE7       30.25S
SIOUX CITY     MOCLDY    50  23  34 NE3       30.25S
SPENCER        MOCLDY    42  29  59 NE8       30.27S
STORM LAKE *   CLEAR     43  27  52 NE6       30.26S
$$

IAZ055>058-069>071-079>083-090>094-180200-
   SOUTHWEST IOWA

CITY           SKY/WX    TMP DP  RH WIND       PRES   REMARKS
ATLANTIC *     CLEAR     50  25  37 CALM      30.24R
AUDUBON *      CLEAR     46  21  36 CALM      30.26R
CLARINDA *     CLEAR     52  32  46 CALM      30.26S
COUNCIL BLFS * CLEAR     50  25  37 CALM      30.24R
CRESTON *      CLEAR     48  28  46 E3        30.25S
HARLAN  *      CLEAR     50  27  40 N3        30.28R
LAMONI         CLEAR     51  30  44 CALM      30.25R
RED OAK *      CLEAR     50  28  43 CALM      30.25S
SHENANDOAH *   CLEAR     52  27  37 CALM      30.26R
$$

IAZ047>049-059>061-072>074-084-180200-
   CENTRAL IOWA

CITY           SKY/WX    TMP DP  RH WIND       PRES   REMARKS
AMES           CLEAR     46  28  49 NE7       30.26R
ANKENY *       CLEAR     46  30  53 NE6       30.26R
CHARITON *     CLEAR     50  30  46 E5        30.26S
DES MOINES     CLEAR     52  27  38 CALM      30.26R
GRINNELL*      CLEAR     43  30  61 NE3       30.27R
KNOXVILLE *    CLEAR     48  30  49 E3        30.26S
MARSHALLTOWN   CLEAR     41  32  70 N7        30.26R
NEWTON *       CLEAR     46  30  53 NE5       30.27R
PELLA *        CLEAR     48  32  53 CALM      30.28R
PERRY *          N/A     48  25  40 NE5       30.25S
$$

IAZ004>006-015-016-023>025-035-036-180200-
   NORTH CENTRAL IOWA

CITY           SKY/WX    TMP DP  RH WIND       PRES   REMARKS
ALGONA *       PTCLDY    37  30  75 NE5       30.29R WCI  34
CLARION *      CLEAR     39  30  70 NE7       30.28R WCI  34
ESTHERVILLE    PTCLDY    39  30  70 N7        30.27S WCI  34
FORT DODGE *   CLEAR     45  28  53 NE7       30.28R
MASON CITY     CLEAR     35  30  82 N7        30.29R WCI  29
FOREST CITY *  CLEAR     36  32  87 N3        30.28R
IOWA FALLS *     N/A     41  32  70 N5        30.28R
$$

IAZ007>011-017>019-026>030-037>042-050>054-066-180200-
   NORTHEAST IOWA

CITY           SKY/WX    TMP DP  RH WIND       PRES   REMARKS
CEDAR RAPIDS   CLEAR     46  31  55 NW6       30.24S
CHARLES CITY * CLEAR     37  32  81 N6        30.28S WCI  33
CLINTON *      MOCLDY    46  34  61 NW8       30.28R
DECORAH *      CLOUDY    37  30  75 N6        30.27S WCI  33
DUBUQUE        CLEAR     43  34  70 N9        30.24R
MONTICELLO *   CLEAR     45  34  65 NW6       30.25R
OELWEIN *      CLEAR    N/A N/A N/A N8        30.28S
WATERLOO       CLEAR     38  30  73 N8        30.27R WCI  32
$$

IAZ064-065-067-068-078-180200-
   EAST CENTRAL IOWA

CITY           SKY/WX    TMP DP  RH WIND       PRES   REMARKS
DAVENPORT      MOCLDY    50  35  56 W7        30.27R
IOWA CITY      PTCLDY    46  33  60 SW5       30.28R
MT. PLEASANT * MOCLDY    50  36  57 W3        30.27S
MUSCATINE *    CLEAR     50  34  53 NW6       30.27R
QUAD CITIES    CLOUDY    49  34  56 SW6       30.26R
$$

IAZ062-063-075>077-085>089-095>099-180200-
   SOUTHEAST IOWA

CITY           SKY/WX    TMP DP  RH WIND       PRES   REMARKS
BURLINGTON     CLOUDY    49  37  63 SW7       30.26R
FAIRFIELD *    CLEAR     48  32  53 CALM      30.27S
FORT MADISON * CLEAR     48  37  66 S3        30.28S
KEOKUK *       CLEAR     50  36  57 S3        30.27S
OSKALOOSA *      N/A     48  32  53 CALM      30.27S
CENTERVILLE *  CLEAR     48  32  53 CALM      30.27S
OTTUMWA        CLEAR     47  31  53 N5        30.26S
WASHINGTON *   CLEAR     48  34  57 NW5       30.27S
$$

ABBREVIATIONS USED IN REMARKS
   TC - TEMPERATURES IN CELSIUS
  WCI - WIND CHILL INDEX
   HX - HEAT INDEX
  VSB - VISIBILITY
$$




USA.gov is the U.S. government's official web portal to all federal, state and local government web resources and services.